User: anonymous   Login
Location: Bismarck
(46.7731°N, 100.8200°W)
Time: 07:20:20
(UTC-05:00)
Language:

Cosmos 2219 Rocket - Orbit

View from above orbital plane
View from above orbital plane
View from above satellite
View from above satellite

Ground track
Ground track

The orbit data is extracted from the following two-line orbital elements,

1 22220U 92076B   17293.96849850 +.00000146 +00000-0 +97632-4 0  9995
2 22220 070.9987 154.4869 0010704 079.4593 017.7561 14.16420298288255
Epoch (UTC): 20 October 2017 23:14:38
Eccentricity: 0.0010704
inclination: 70.9987°
perigee height: 830 km
apogee height: 845 km
right ascension of ascending node: 154.4869°
argument of perigee: 79.4593°
revolutions per day: 14.16420298
mean anomaly at epoch: 17.7561°
orbit number at epoch: 28825

The dashed part of the orbit path shows where the satellite is in the earth's shadow,  

DLR